Time,TemperatureF,DewpointF,PressureIn,WindDirection,WindDirectionDegrees,WindSpeedMPH,WindSpeedGustMPH,Humidity,HourlyPrecipIn,Conditions,Clouds,dailyrainin,SoftwareType,DateUTC
2013-01-05 00:14:00,25.9,24.8,30.32,South,180,0.0,0.0,96,0.00,,,0.00,WUHU21623XXSP,2013-01-05 08:14:00,
2013-01-05 01:14:00,25.2,24.1,30.33,SSE,158,0.0,0.0,96,0.00,,,0.00,WUHU21623XXSP,2013-01-05 09:14:00,
2013-01-05 02:14:00,25.2,24.1,30.33,SSE,158,0.0,0.0,96,0.00,,,0.00,WUHU21623XXSP,2013-01-05 10:14:00,
2013-01-05 03:14:00,25.7,24.6,30.32,SSE,158,0.0,0.0,96,0.00,,,0.00,WUHU21623XXSP,2013-01-05 11:14:00,
2013-01-05 04:14:00,25.5,24.7,30.31,SSE,158,0.0,0.0,97,0.00,,,0.00,WUHU21623XXSP,2013-01-05 12:14:00,
2013-01-05 05:14:00,25.9,25.1,30.30,SSW,203,0.0,0.0,97,0.00,,,0.00,WUHU21623XXSP,2013-01-05 13:14:00,
2013-01-05 06:14:00,26.4,25.6,30.30,SSW,203,0.0,0.0,97,0.00,,,0.00,WUHU21623XXSP,2013-01-05 14:14:00,
2013-01-05 07:14:00,27.1,26.0,30.29,SSW,203,0.0,0.0,96,0.00,,,0.00,WUHU21623XXSP,2013-01-05 15:14:00,
2013-01-05 08:14:00,27.1,26.0,30.28,South,180,0.0,0.0,96,0.00,,,0.00,WUHU21623XXSP,2013-01-05 16:14:00,
2013-01-05 09:14:00,30.9,29.0,30.28,SW,225,0.0,0.0,93,0.00,,,0.00,WUHU21623XXSP,2013-01-05 17:14:00,
2013-01-05 10:14:00,32.7,28.0,30.27,SW,225,0.0,0.0,83,0.00,,,0.00,WUHU21623XXSP,2013-01-05 18:14:00,
2013-01-05 11:14:00,30.7,26.9,30.25,SSW,203,0.0,0.0,86,0.00,,,0.00,WUHU21623XXSP,2013-01-05 19:14:00,
2013-01-05 11:40:00,32.2,28.1,30.24,SW,225,0.0,0.0,85,0.00,,,0.00,WUHU21623XXSP,2013-01-05 19:40:00,
2013-01-05 11:45:00,32.2,28.1,30.24,SW,225,0.0,0.0,85,0.00,,,0.02,WUHU21623XXSP,2013-01-05 19:45:00,
2013-01-05 11:50:00,32.2,28.1,30.24,SW,225,0.0,0.0,85,0.00,,,0.02,WUHU21623XXSP,2013-01-05 19:50:00,
2013-01-05 11:55:00,32.2,28.1,30.24,SSW,202,0.0,0.0,85,0.00,,,0.02,WUHU21623XXSP,2013-01-05 19:55:00,
2013-01-05 12:00:00,32.2,28.1,30.23,SSW,202,0.0,0.0,85,0.00,,,0.02,WUHU21623XXSP,2013-01-05 20:00:00,
2013-01-05 12:05:00,32.2,28.1,30.23,SSW,202,0.0,0.0,85,0.00,,,0.02,WUHU21623XXSP,2013-01-05 20:05:00,
2013-01-05 12:10:00,32.2,28.1,30.24,SSW,202,0.0,0.0,85,0.00,,,0.02,WUHU21623XXSP,2013-01-05 20:10:00,
2013-01-05 12:15:00,32.2,28.1,30.23,SSW,202,0.0,0.0,85,0.00,,,0.02,WUHU21623XXSP,2013-01-05 20:15:00,
2013-01-05 12:20:00,32.2,28.1,30.24,SSW,202,0.0,0.0,85,0.00,,,0.02,WUHU21623XXSP,2013-01-05 20:20:00,
2013-01-05 12:25:00,32.4,28.3,30.23,SSW,202,0.0,0.0,85,0.00,,,0.02,WUHU21623XXSP,2013-01-05 20:25:00,
2013-01-05 12:30:00,32.5,28.4,30.23,SSW,202,0.0,0.0,85,0.00,,,0.02,WUHU21623XXSP,2013-01-05 20:30:00,
2013-01-05 12:35:00,32.5,28.4,30.23,SSW,202,0.0,0.0,85,0.00,,,0.02,WUHU21623XXSP,2013-01-05 20:35:00,
2013-01-05 12:40:00,32.5,28.4,30.23,SSW,202,0.0,0.0,85,0.00,,,0.02,WUHU21623XXSP,2013-01-05 20:40:00,
2013-01-05 12:45:00,32.5,28.4,30.22,SSW,202,0.0,0.0,85,0.00,,,0.02,WUHU21623XXSP,2013-01-05 20:45:00,
2013-01-05 12:50:00,32.2,28.1,30.22,SSW,202,0.0,0.0,85,0.00,,,0.02,WUHU21623XXSP,2013-01-05 20:50:00,
2013-01-05 12:55:00,32.2,28.1,30.22,SSW,202,0.0,0.0,85,0.00,,,0.02,WUHU21623XXSP,2013-01-05 20:55:00,
2013-01-05 13:00:00,32.4,28.3,30.23,SSW,202,0.0,0.0,85,0.00,,,0.02,WUHU21623XXSP,2013-01-05 21:00:00,
2013-01-05 13:05:00,32.5,28.4,30.22,SSW,202,0.0,0.0,85,0.00,,,0.02,WUHU21623XXSP,2013-01-05 21:05:00,
2013-01-05 13:10:00,32.5,28.4,30.23,SSW,202,0.0,0.0,85,0.00,,,0.02,WUHU21623XXSP,2013-01-05 21:10:00,
2013-01-05 13:15:00,32.5,28.4,30.22,SSW,202,0.0,0.0,85,0.00,,,0.02,WUHU21623XXSP,2013-01-05 21:15:00,
2013-01-05 13:20:00,32.5,28.4,30.22,SSW,202,0.0,0.0,85,0.00,,,0.02,WUHU21623XXSP,2013-01-05 21:20:00,
2013-01-05 13:25:00,32.5,28.4,30.21,SSW,202,0.0,0.0,85,0.00,,,0.02,WUHU21623XXSP,2013-01-05 21:25:00,
2013-01-05 13:30:00,32.4,28.3,30.22,SSW,202,0.0,0.0,85,0.00,,,0.02,WUHU21623XXSP,2013-01-05 21:30:00,
2013-01-05 13:35:00,32.4,28.3,30.21,SSW,202,0.0,0.0,85,0.00,,,0.02,WUHU21623XXSP,2013-01-05 21:35:00,
2013-01-05 13:40:00,32.2,28.1,30.21,SSW,202,0.0,0.0,85,0.00,,,0.02,WUHU21623XXSP,2013-01-05 21:40:00,
2013-01-05 13:45:00,32.2,28.1,30.21,SW,225,0.0,0.0,85,0.00,,,0.02,WUHU21623XXSP,2013-01-05 21:45:00,
2013-01-05 13:50:00,32.2,28.4,30.20,SW,225,0.0,0.0,86,0.00,,,0.02,WUHU21623XXSP,2013-01-05 21:50:00,
2013-01-05 13:55:00,32.2,28.4,30.20,SW,225,0.0,0.0,86,0.00,,,0.02,WUHU21623XXSP,2013-01-05 21:55:00,
2013-01-05 14:00:00,32.2,28.4,30.20,WSW,247,0.0,0.0,86,0.00,,,0.02,WUHU21623XXSP,2013-01-05 22:00:00,
2013-01-05 14:05:00,31.8,28.0,30.20,WSW,247,0.0,0.0,86,0.00,,,0.02,WUHU21623XXSP,2013-01-05 22:05:00,
2013-01-05 14:10:00,31.8,28.0,30.21,WSW,247,0.0,0.0,86,0.00,,,0.02,WUHU21623XXSP,2013-01-05 22:10:00,
2013-01-05 14:15:00,31.6,27.8,30.21,SW,225,0.0,0.0,86,0.00,,,0.02,WUHU21623XXSP,2013-01-05 22:15:00,
2013-01-05 14:20:00,31.6,27.8,30.21,SW,225,0.0,0.0,86,0.00,,,0.02,WUHU21623XXSP,2013-01-05 22:20:00,
2013-01-05 14:25:00,31.6,27.8,30.21,SW,225,0.0,0.0,86,0.00,,,0.02,WUHU21623XXSP,2013-01-05 22:25:00,
2013-01-05 14:30:00,31.6,27.8,30.20,SW,225,3.4,8.1,86,0.00,,,0.02,WUHU21623XXSP,2013-01-05 22:30:00,
2013-01-05 14:35:00,31.6,27.8,30.21,SW,225,2.5,4.3,86,0.00,,,0.02,WUHU21623XXSP,2013-01-05 22:35:00,
2013-01-05 14:40:00,31.6,27.8,30.22,SW,225,2.5,3.4,86,0.00,,,0.02,WUHU21623XXSP,2013-01-05 22:40:00,
2013-01-05 14:45:00,31.6,27.8,30.21,SW,225,0.0,2.5,86,0.00,,,0.02,WUHU21623XXSP,2013-01-05 22:45:00,
2013-01-05 14:50:00,31.5,27.7,30.22,SW,225,0.0,0.0,86,0.00,,,0.02,WUHU21623XXSP,2013-01-05 22:50:00,
2013-01-05 14:55:00,31.3,27.5,30.21,SW,225,8.5,8.5,86,0.00,,,0.02,WUHU21623XXSP,2013-01-05 22:55:00,
2013-01-05 15:00:00,31.3,27.8,30.22,SW,225,0.0,8.5,87,0.00,,,0.02,WUHU21623XXSP,2013-01-05 23:00:00,
2013-01-05 15:05:00,31.3,27.8,30.22,SW,225,0.0,6.7,87,0.00,,,0.02,WUHU21623XXSP,2013-01-05 23:05:00,
2013-01-05 15:10:00,31.1,27.6,30.22,SW,225,0.0,0.0,87,0.00,,,0.02,WUHU21623XXSP,2013-01-05 23:10:00,
2013-01-05 15:15:00,31.1,27.6,30.21,SW,225,0.0,0.0,87,0.00,,,0.02,WUHU21623XXSP,2013-01-05 23:15:00,
2013-01-05 15:20:00,30.9,27.4,30.21,SW,225,0.0,0.0,87,0.00,,,0.02,WUHU21623XXSP,2013-01-05 23:20:00,
2013-01-05 15:25:00,30.9,27.4,30.21,SW,225,0.0,0.0,87,0.00,,,0.02,WUHU21623XXSP,2013-01-05 23:25:00,
2013-01-05 15:30:00,30.7,27.5,30.22,SW,225,0.0,0.0,88,0.00,,,0.02,WUHU21623XXSP,2013-01-05 23:30:00,
2013-01-05 15:35:00,30.7,27.5,30.21,SW,225,0.0,0.0,88,0.00,,,0.02,WUHU21623XXSP,2013-01-05 23:35:00,
2013-01-05 15:40:00,30.7,27.5,30.21,WSW,247,0.0,0.0,88,0.00,,,0.02,WUHU21623XXSP,2013-01-05 23:40:00,
2013-01-05 15:45:00,30.7,27.5,30.21,WSW,247,0.0,0.0,88,0.00,,,0.02,WUHU21623XXSP,2013-01-05 23:45:00,
2013-01-05 15:50:00,30.6,27.4,30.21,WSW,247,0.0,0.0,88,0.00,,,0.02,WUHU21623XXSP,2013-01-05 23:50:00,
2013-01-05 15:55:00,30.6,27.4,30.21,WSW,247,0.0,0.0,88,0.00,,,0.02,WUHU21623XXSP,2013-01-05 23:55:00,
2013-01-05 16:00:00,30.4,27.2,30.20,WSW,247,0.0,0.0,88,0.00,,,0.02,WUHU21623XXSP,2013-01-06 00:00:00,
2013-01-05 16:05:00,30.4,27.2,30.21,WSW,247,0.0,0.0,88,0.00,,,0.02,WUHU21623XXSP,2013-01-06 00:05:00,
2013-01-05 16:10:00,30.4,27.4,30.21,WSW,247,0.0,0.0,89,0.00,,,0.02,WUHU21623XXSP,2013-01-06 00:10:00,
2013-01-05 16:15:00,30.0,27.1,30.20,WSW,247,0.0,0.0,89,0.00,,,0.02,WUHU21623XXSP,2013-01-06 00:15:00,
2013-01-05 16:20:00,30.0,27.1,30.21,WSW,247,0.0,0.0,89,0.00,,,0.02,WUHU21623XXSP,2013-01-06 00:20:00,
2013-01-05 16:25:00,29.8,26.9,30.21,WSW,247,0.0,0.0,89,0.00,,,0.02,WUHU21623XXSP,2013-01-06 00:25:00,
2013-01-05 16:30:00,29.8,26.9,30.20,WSW,247,0.0,0.0,89,0.00,,,0.02,WUHU21623XXSP,2013-01-06 00:30:00,
2013-01-05 16:35:00,29.8,27.1,30.20,WSW,247,0.0,0.0,90,0.00,,,0.02,WUHU21623XXSP,2013-01-06 00:35:00,
2013-01-05 16:40:00,29.5,26.8,30.20,WSW,247,0.0,0.0,90,0.00,,,0.02,WUHU21623XXSP,2013-01-06 00:40:00,
2013-01-05 16:45:00,29.5,26.8,30.20,WSW,247,0.0,0.0,90,0.00,,,0.02,WUHU21623XXSP,2013-01-06 00:45:00,
2013-01-05 16:50:00,29.5,26.8,30.20,WSW,247,0.0,0.0,90,0.00,,,0.02,WUHU21623XXSP,2013-01-06 00:50:00,
2013-01-05 16:55:00,29.5,26.8,30.20,WSW,247,0.0,0.0,90,0.00,,,0.02,WUHU21623XXSP,2013-01-06 00:55:00,
2013-01-05 17:00:00,29.3,26.6,30.20,WSW,247,0.0,0.0,90,0.00,,,0.02,WUHU21623XXSP,2013-01-06 01:00:00,
2013-01-05 17:05:00,29.1,26.4,30.19,WSW,247,0.0,0.0,90,0.00,,,0.02,WUHU21623XXSP,2013-01-06 01:05:00,
2013-01-05 17:10:00,28.9,26.5,30.19,WSW,247,0.0,0.0,91,0.00,,,0.02,WUHU21623XXSP,2013-01-06 01:10:00,
2013-01-05 17:15:00,28.9,26.5,30.19,WSW,247,0.0,0.0,91,0.00,,,0.02,WUHU21623XXSP,2013-01-06 01:15:00,
2013-01-05 17:20:00,28.8,26.4,30.19,WSW,247,0.0,0.0,91,0.00,,,0.02,WUHU21623XXSP,2013-01-06 01:20:00,
2013-01-05 17:25:00,28.8,26.4,30.19,WSW,247,0.0,0.0,91,0.00,,,0.02,WUHU21623XXSP,2013-01-06 01:25:00,
2013-01-05 17:30:00,28.6,26.2,30.19,WSW,247,0.0,0.0,91,0.00,,,0.02,WUHU21623XXSP,2013-01-06 01:30:00,
2013-01-05 17:35:00,28.6,26.2,30.18,WSW,247,0.0,0.0,91,0.00,,,0.02,WUHU21623XXSP,2013-01-06 01:35:00,
2013-01-05 17:40:00,28.2,25.8,30.18,WSW,247,0.0,0.0,91,0.00,,,0.02,WUHU21623XXSP,2013-01-06 01:40:00,
2013-01-05 17:45:00,28.2,25.8,30.18,WSW,247,0.0,0.0,91,0.00,,,0.02,WUHU21623XXSP,2013-01-06 01:45:00,
2013-01-05 17:50:00,28.0,25.6,30.18,WSW,247,0.0,0.0,91,0.00,,,0.02,WUHU21623XXSP,2013-01-06 01:50:00,
2013-01-05 17:55:00,27.9,25.5,30.19,NNE,22,0.0,0.0,91,0.00,,,0.02,WUHU21623XXSP,2013-01-06 01:55:00,
2013-01-05 18:00:00,27.7,25.3,30.18,NE,45,8.3,8.3,91,0.00,,,0.02,WUHU21623XXSP,2013-01-06 02:00:00,
2013-01-05 18:05:00,27.3,24.9,30.18,NE,45,6.0,8.3,91,0.00,,,0.02,WUHU21623XXSP,2013-01-06 02:05:00,
2013-01-05 18:10:00,27.1,25.0,30.19,NE,45,6.0,7.8,92,0.00,,,0.02,WUHU21623XXSP,2013-01-06 02:10:00,
2013-01-05 18:15:00,26.8,24.4,30.18,NE,45,6.7,6.7,91,0.00,,,0.02,WUHU21623XXSP,2013-01-06 02:15:00,
2013-01-05 18:20:00,26.6,24.2,30.19,NE,45,8.1,8.1,91,0.00,,,0.02,WUHU21623XXSP,2013-01-06 02:20:00,
2013-01-05 18:25:00,26.4,24.3,30.19,NE,45,7.2,8.1,92,0.00,,,0.02,WUHU21623XXSP,2013-01-06 02:25:00,
2013-01-05 18:30:00,26.4,24.3,30.19,NE,45,7.6,8.3,92,0.00,,,0.02,WUHU21623XXSP,2013-01-06 02:30:00,
2013-01-05 18:35:00,26.4,24.3,30.18,NNE,22,3.1,8.3,92,0.00,,,0.02,WUHU21623XXSP,2013-01-06 02:35:00,
2013-01-05 18:40:00,26.2,24.1,30.18,NNE,22,4.3,7.8,92,0.00,,,0.02,WUHU21623XXSP,2013-01-06 02:40:00,
2013-01-05 18:45:00,26.2,24.1,30.18,NNE,22,4.9,7.8,92,0.00,,,0.02,WUHU21623XXSP,2013-01-06 02:45:00,
2013-01-05 18:50:00,26.2,24.1,30.18,NNE,22,8.3,8.3,92,0.00,,,0.02,WUHU21623XXSP,2013-01-06 02:50:00,
2013-01-05 18:55:00,26.1,24.0,30.18,NE,45,7.8,8.9,92,0.00,,,0.02,WUHU21623XXSP,2013-01-06 02:55:00,
2013-01-05 19:00:00,25.9,23.8,30.18,NNE,22,7.8,8.9,92,0.00,,,0.02,WUHU21623XXSP,2013-01-06 03:00:00,
2013-01-05 19:05:00,25.7,23.6,30.18,NNE,22,6.7,7.8,92,0.00,,,0.02,WUHU21623XXSP,2013-01-06 03:05:00,
2013-01-05 19:10:00,25.5,23.4,30.18,NNE,22,0.0,7.6,92,0.00,,,0.02,WUHU21623XXSP,2013-01-06 03:10:00,
2013-01-05 19:15:00,25.3,23.2,30.18,NNE,22,6.5,6.7,92,0.00,,,0.02,WUHU21623XXSP,2013-01-06 03:15:00,
2013-01-05 19:20:00,25.2,23.1,30.18,NNE,22,7.6,7.6,92,0.00,,,0.02,WUHU21623XXSP,2013-01-06 03:20:00,
2013-01-05 19:25:00,24.6,22.5,30.18,NNE,22,7.4,8.1,92,0.00,,,0.02,WUHU21623XXSP,2013-01-06 03:25:00,
2013-01-05 19:30:00,24.6,22.5,30.18,NNE,22,3.6,8.1,92,0.00,,,0.02,WUHU21623XXSP,2013-01-06 03:30:00,
2013-01-05 19:35:00,24.4,22.3,30.18,NNE,22,6.9,7.4,92,0.00,,,0.02,WUHU21623XXSP,2013-01-06 03:35:00,
2013-01-05 19:40:00,24.1,22.0,30.18,NNE,22,9.8,9.8,92,0.00,,,0.02,WUHU21623XXSP,2013-01-06 03:40:00,
2013-01-05 19:45:00,23.9,21.8,30.18,North,0,10.7,10.7,92,0.00,,,0.02,WUHU21623XXSP,2013-01-06 03:45:00,
2013-01-05 19:50:00,23.5,21.4,30.18,NNE,22,8.3,10.7,92,0.00,,,0.02,WUHU21623XXSP,2013-01-06 03:50:00,
2013-01-05 19:55:00,23.2,21.1,30.18,NNE,22,13.0,13.0,92,0.00,,,0.02,WUHU21623XXSP,2013-01-06 03:55:00,
2013-01-05 20:00:00,23.0,20.9,30.18,NE,45,14.8,14.8,92,0.00,,,0.02,WUHU21623XXSP,2013-01-06 04:00:00,
2013-01-05 20:05:00,22.8,20.7,30.18,NNE,22,10.5,14.8,92,0.00,,,0.02,WUHU21623XXSP,2013-01-06 04:05:00,
2013-01-05 20:10:00,22.6,20.5,30.17,NNE,22,8.9,12.8,92,0.00,,,0.02,WUHU21623XXSP,2013-01-06 04:10:00,
2013-01-05 20:15:00,22.3,20.5,30.17,NNE,22,8.9,10.5,93,0.00,,,0.02,WUHU21623XXSP,2013-01-06 04:15:00,
2013-01-05 20:20:00,22.3,20.5,30.18,NNE,22,14.1,14.1,93,0.00,,,0.02,WUHU21623XXSP,2013-01-06 04:20:00,
2013-01-05 20:25:00,22.1,20.3,30.18,NNE,22,8.3,14.1,93,0.00,,,0.02,WUHU21623XXSP,2013-01-06 04:25:00,
2013-01-05 20:30:00,21.9,20.1,30.18,NNE,22,8.5,14.1,93,0.00,,,0.02,WUHU21623XXSP,2013-01-06 04:30:00,
2013-01-05 20:35:00,21.9,20.1,30.18,NNE,22,11.9,11.9,93,0.00,,,0.02,WUHU21623XXSP,2013-01-06 04:35:00,
2013-01-05 20:40:00,21.9,20.1,30.17,NNE,22,8.7,11.9,93,0.00,,,0.02,WUHU21623XXSP,2013-01-06 04:40:00,
2013-01-05 20:45:00,21.9,20.1,30.17,North,0,7.4,8.7,93,0.00,,,0.02,WUHU21623XXSP,2013-01-06 04:45:00,
2013-01-05 20:50:00,21.9,20.1,30.18,North,0,7.4,8.7,93,0.00,,,0.02,WUHU21623XXSP,2013-01-06 04:50:00,
2013-01-05 20:55:00,21.9,20.1,30.18,North,0,8.9,8.9,93,0.00,,,0.02,WUHU21623XXSP,2013-01-06 04:55:00,
2013-01-05 21:00:00,21.9,20.1,30.17,NNE,22,7.8,8.9,93,0.00,,,0.02,WUHU21623XXSP,2013-01-06 05:00:00,
2013-01-05 21:01:00,21.9,20.1,30.17,NNE,22,7.8,8.9,93,0.00,,,0.02,WUHU21623XXSP,2013-01-06 05:01:00,
2013-01-05 21:03:00,21.9,20.3,30.17,NNE,22,7.8,8.9,94,0.00,,,0.02,WUHU21623XXSP,2013-01-06 05:03:00,
2013-01-05 21:07:00,22.1,20.5,30.17,North,0,6.9,7.8,94,0.00,,,0.02,WUHU21623XXSP,2013-01-06 05:07:00,
2013-01-05 21:12:00,21.9,20.3,30.17,North,0,6.5,6.9,94,0.00,,,0.02,WUHU21623XXSP,2013-01-06 05:12:00,
2013-01-05 21:17:00,21.9,20.3,30.17,North,0,6.5,6.9,94,0.00,,,0.02,WUHU21623XXSP,2013-01-06 05:17:00,
2013-01-05 21:22:00,21.9,20.3,30.17,North,0,0.0,6.5,94,0.00,,,0.02,WUHU21623XXSP,2013-01-06 05:22:00,
2013-01-05 21:27:00,22.1,20.5,30.17,North,0,6.7,6.7,94,0.00,,,0.02,WUHU21623XXSP,2013-01-06 05:27:00,
2013-01-05 21:32:00,22.1,20.5,30.17,North,0,8.3,8.3,94,0.00,,,0.02,WUHU21623XXSP,2013-01-06 05:32:00,
2013-01-05 21:37:00,22.1,20.5,30.17,North,0,0.0,8.3,94,0.00,,,0.02,WUHU21623XXSP,2013-01-06 05:37:00,
2013-01-05 21:42:00,22.1,20.5,30.16,North,0,0.0,8.3,94,0.00,,,0.02,WUHU21623XXSP,2013-01-06 05:42:00,
2013-01-05 21:47:00,22.1,20.5,30.17,North,0,0.0,0.0,94,0.00,,,0.02,WUHU21623XXSP,2013-01-06 05:47:00,
2013-01-05 21:52:00,22.3,20.7,30.16,North,0,8.3,8.3,94,0.00,,,0.02,WUHU21623XXSP,2013-01-06 05:52:00,
2013-01-05 21:57:00,22.1,20.5,30.17,North,0,7.4,8.3,94,0.00,,,0.02,WUHU21623XXSP,2013-01-06 05:57:00,
2013-01-05 22:02:00,22.1,20.5,30.17,North,0,8.1,8.1,94,0.00,,,0.02,WUHU21623XXSP,2013-01-06 06:02:00,
2013-01-05 22:07:00,22.3,20.7,30.17,North,0,7.2,8.1,94,0.00,,,0.02,WUHU21623XXSP,2013-01-06 06:07:00,
2013-01-05 22:12:00,22.3,20.7,30.17,NNE,22,8.1,8.1,94,0.00,,,0.02,WUHU21623XXSP,2013-01-06 06:12:00,
2013-01-05 22:17:00,22.1,20.5,30.17,NNE,22,0.0,8.1,94,0.00,,,0.02,WUHU21623XXSP,2013-01-06 06:17:00,
2013-01-05 22:22:00,22.1,20.5,30.17,NNE,22,0.0,5.8,94,0.00,,,0.02,WUHU21623XXSP,2013-01-06 06:22:00,
2013-01-05 22:27:00,22.1,20.5,30.17,NNE,22,0.0,0.0,94,0.00,,,0.02,WUHU21623XXSP,2013-01-06 06:27:00,
2013-01-05 22:32:00,22.1,20.5,30.17,NNE,22,0.0,0.0,94,0.00,,,0.02,WUHU21623XXSP,2013-01-06 06:32:00,
2013-01-05 22:37:00,21.9,20.3,30.17,NNE,22,0.0,0.0,94,0.00,,,0.02,WUHU21623XXSP,2013-01-06 06:37:00,
2013-01-05 22:43:00,21.9,20.3,30.17,NNE,22,0.0,0.0,94,0.00,,,0.02,WUHU21623XXSP,2013-01-06 06:43:00,
2013-01-05 22:48:00,21.9,20.3,30.17,NNE,22,0.0,0.0,94,0.00,,,0.02,WUHU21623XXSP,2013-01-06 06:48:00,
2013-01-05 22:53:00,21.9,20.3,30.16,NNE,22,0.0,6.3,94,0.00,,,0.02,WUHU21623XXSP,2013-01-06 06:53:00,
2013-01-05 22:58:00,21.9,20.3,30.16,NNE,22,0.0,6.3,94,0.00,,,0.02,WUHU21623XXSP,2013-01-06 06:58:00,
2013-01-05 23:03:00,22.1,20.5,30.16,NNE,22,0.0,0.0,94,0.00,,,0.02,WUHU21623XXSP,2013-01-06 07:03:00,
2013-01-05 23:08:00,22.1,20.5,30.16,NNE,22,0.0,0.0,94,0.00,,,0.02,WUHU21623XXSP,2013-01-06 07:08:00,
2013-01-05 23:13:00,22.1,20.5,30.16,NNE,22,0.0,0.0,94,0.00,,,0.02,WUHU21623XXSP,2013-01-06 07:13:00,
2013-01-05 23:18:00,22.1,20.5,30.16,NNE,22,0.0,0.0,94,0.00,,,0.02,WUHU21623XXSP,2013-01-06 07:18:00,
2013-01-05 23:23:00,21.9,20.3,30.15,NNE,22,0.0,0.0,94,0.00,,,0.02,WUHU21623XXSP,2013-01-06 07:23:00,
2013-01-05 23:28:00,22.1,20.5,30.15,NNE,22,0.0,0.0,94,0.00,,,0.02,WUHU21623XXSP,2013-01-06 07:28:00,
2013-01-05 23:33:00,22.1,20.5,30.15,NNE,22,0.0,0.0,94,0.00,,,0.02,WUHU21623XXSP,2013-01-06 07:33:00,
2013-01-05 23:38:00,21.9,20.6,30.15,NNE,22,0.0,0.0,95,0.00,,,0.02,WUHU21623XXSP,2013-01-06 07:38:00,
2013-01-05 23:43:00,21.9,20.6,30.15,NNE,22,0.0,0.0,95,0.00,,,0.02,WUHU21623XXSP,2013-01-06 07:43:00,
2013-01-05 23:48:00,22.1,20.8,30.15,NNE,22,0.0,0.0,95,0.00,,,0.02,WUHU21623XXSP,2013-01-06 07:48:00,
2013-01-05 23:53:00,22.1,20.8,30.15,NNE,22,0.0,0.0,95,0.00,,,0.02,WUHU21623XXSP,2013-01-06 07:53:00,
2013-01-05 23:58:00,22.1,20.5,30.15,NNE,22,0.0,0.0,94,0.00,,,0.02,WUHU21623XXSP,2013-01-06 07:58:00,